Find Starlink 32881

NORAD ID: 62997 Int'l Des: 2025-031 Owner: SPXS Country: US Constellation: starlink operational
LEOCIRCULAR

实时位置

正在加载3D地球...

关于 Starlink 32881

正在加载描述...

即将过境

Passes for default location (London). Set your location on the main map for personalized predictions.

高度历史

Loading altitude history...

两行轨道根数

1 62997U 25031S 26125.22400795 .00033381 00000-0 12158-2 0 9996
2 62997 42.9999 183.8637 0001575 273.3915 86.6756 15.27613709 69746
Epoch: May 5, 2026 • Age: 21 hours

当前状态

高度 491.8 km
速度 7.62 km/s
星下点 -34.59°S, 140.12°E
发射日期 Feb 11, 2025
运行时间 1.2 years
类型 internet

技术详情

分类 Payload
质量 730.00 kg
干质量 700.00 kg
总质量 730.00 kg
长度 0.30 m
直径 4.10 m
跨度 29.00 m
形状 Box + pan
制造商 SPXS
平台类型 Starlink V2M
阶段状态 In Orbit
所有者/国家 SPXS/US

Most Searched